Location: Asheville, NC
(35.6000°N, 82.5500°W)
Time: 01:24:03
(UTC-04:00)

Hubble Space Telescope - Pass Details

Date: 10 December 2017
Orbit: 537 x 541 km, 28.5° (Epoch: 25 April)

Event Time Altitude Azimuth Distance (km) Brightness Sun altitude
Rises 17:41:45 0° 230° (SW) 2,670 6.2 -5.3°
Reaches altitude 10° 17:44:27 10° 213° (SSW) 1,782 4.4 -5.8°
Maximum altitude 17:47:29 20° 165° (SSE) 1,274 2.8 -6.4°
Drops below altitude 10° 17:50:32 10° 118° (ESE) 1,785 3.1 -6.9°
Enters shadow 17:52:21 - 105° (ESE) 2,368 3.6 -7.3°
